• In Uzbekistan
  • List of Countries
  • For 7 days
  • Water Temperature
  • Satellite Maps
  • Weather Map
  • Weather Widgets
  • user-avatar
    Login

    Hourly Weather Rio de Janeiro

    Today, 24 February, Saturday

    Time Temperature Precipitation Wind Pressure Humidity
    00:00 +25°C° 0.1 mm 1 mps 759 mmHg 92%
    01:00 +24°C° 0.1 mm 1 mps 759 mmHg 92%
    02:00 +24°C° 0.1 mm 1 mps 758 mmHg 92%
    03:00 +24°C° 0.1 mm 1 mps 758 mmHg 92%
    04:00 +24°C° 0.1 mm 1 mps 758 mmHg 92%
    05:00 +24°C° 0.1 mm 1 mps 758 mmHg 92%
    06:00 +24°C° 0.1 mm 1 mps 758 mmHg 92%
    07:00 +25°C° 0.1 mm 1 mps 759 mmHg 86%
    08:00 +27°C° 0.1 mm 1 mps 759 mmHg 79%
    09:00 +28°C° 0.1 mm 1 mps 759 mmHg 73%
    10:00 +29°C° 0 mm 1 mps 759 mmHg 70%
    11:00 +29°C° 0 mm 2 mps 759 mmHg 68%
    12:00 +30°C° 0 mm 2 mps 759 mmHg 65%
    13:00 +30°C° 0 mm 2 mps 759 mmHg 65%
    14:00 +30°C° 0 mm 3 mps 758 mmHg 65%
    15:00 +30°C° 0 mm 3 mps 758 mmHg 66%
    16:00 +29°C° 0 mm 3 mps 758 mmHg 69%
    17:00 +28°C° 0 mm 3 mps 758 mmHg 71%
    18:00 +27°C° 0 mm 3 mps 758 mmHg 74%
    19:00 +27°C° 0 mm 2 mps 759 mmHg 77%
    20:00 +26°C° 0 mm 2 mps 759 mmHg 79%
    21:00 +25°C° 0 mm 2 mps 760 mmHg 81%
    22:00 +25°C° 0 mm 1 mps 760 mmHg 82%
    23:00 +25°C° 0 mm 1 mps 760 mmHg 84%

    Tomorrow, 25 February, Sunday

    Time Temperature Precipitation Wind Pressure Humidity
    00:00 +24°C° 0 mm 1 mps 760 mmHg 85%
    01:00 +24°C° 0 mm 1 mps 759 mmHg 86%
    02:00 +24°C° 0 mm 1 mps 759 mmHg 86%
    03:00 +24°C° 0 mm 1 mps 758 mmHg 86%
    04:00 +24°C° 0 mm 1 mps 759 mmHg 87%
    05:00 +23°C° 0 mm 1 mps 759 mmHg 87%
    06:00 +23°C° 0 mm 1 mps 759 mmHg 88%
    07:00 +25°C° 0 mm 1 mps 759 mmHg 80%
    08:00 +28°C° 0 mm 1 mps 759 mmHg 73%
    09:00 +28°C° 0 mm 0 mps 760 mmHg 66%
    10:00 +30°C° 0 mm 1 mps 760 mmHg 65%
    11:00 +31°C° 0 mm 1 mps 759 mmHg 64%
    12:00 +31°C° 0 mm 2 mps 759 mmHg 62%
    13:00 +31°C° 0.1 mm 2 mps 759 mmHg 64%
    14:00 +31°C° 0.1 mm 3 mps 758 mmHg 66%
    15:00 +31°C° 0.1 mm 3 mps 757 mmHg 68%
    16:00 +30°C° 0.1 mm 3 mps 757 mmHg 73%
    17:00 +29°C° 0.1 mm 3 mps 757 mmHg 77%
    18:00 +27°C° 0.1 mm 3 mps 758 mmHg 81%
    19:00 +27°C° 0 mm 3 mps 758 mmHg 83%
    20:00 +26°C° 0 mm 3 mps 759 mmHg 85%
    21:00 +26°C° 0 mm 2 mps 759 mmHg 87%
    22:00 +26°C° 0 mm 2 mps 759 mmHg 87%
    23:00 +26°C° 0 mm 2 mps 759 mmHg 87%

    Day after tomorrow, 26 February, Monday

    Time Temperature Precipitation Wind Pressure Humidity
    00:00 +26°C° 0 mm 1 mps 759 mmHg 88%
    01:00 +26°C° 0.1 mm 1 mps 758 mmHg 88%
    02:00 +25°C° 0.1 mm 1 mps 758 mmHg 88%
    03:00 +25°C° 0.1 mm 1 mps 757 mmHg 89%
    04:00 +25°C° 0.2 mm 1 mps 758 mmHg 89%
    05:00 +25°C° 0.2 mm 1 mps 758 mmHg 90%
    06:00 +25°C° 0.2 mm 1 mps 758 mmHg 91%
    07:00 +26°C° 0.3 mm 1 mps 758 mmHg 89%
    08:00 +26°C° 0.3 mm 1 mps 758 mmHg 87%
    09:00 +27°C° 0.3 mm 1 mps 759 mmHg 85%
    10:00 +28°C° 0.3 mm 1 mps 759 mmHg 83%
    11:00 +29°C° 0.3 mm 1 mps 758 mmHg 80%
    12:00 +29°C° 0.3 mm 1 mps 758 mmHg 78%
    13:00 +29°C° 0.5 mm 1 mps 758 mmHg 79%
    14:00 +29°C° 0.5 mm 1 mps 757 mmHg 80%
    15:00 +28°C° 0.5 mm 1 mps 756 mmHg 81%
    16:00 +28°C° 0.4 mm 2 mps 756 mmHg 83%
    17:00 +27°C° 0.4 mm 2 mps 757 mmHg 84%
    18:00 +27°C° 0.4 mm 2 mps 757 mmHg 86%
    19:00 +27°C° 0.3 mm 2 mps 757 mmHg 87%
    20:00 +27°C° 0.3 mm 2 mps 757 mmHg 88%
    21:00 +26°C° 0.3 mm 2 mps 758 mmHg 89%
    22:00 +26°C° 1.2 mm 2 mps 758 mmHg 91%
    23:00 +26°C° 1.2 mm 2 mps 758 mmHg 93%

    27 February, Tuesday

    Time Temperature Precipitation Wind Pressure Humidity
    00:00 +25°C° 1.2 mm 2 mps 758 mmHg 95%
    01:00 +25°C° 1.2 mm 2 mps 757 mmHg 95%
    02:00 +25°C° 1.2 mm 2 mps 757 mmHg 95%
    03:00 +25°C° 1.2 mm 2 mps 756 mmHg 95%
    04:00 +25°C° 1.8 mm 2 mps 756 mmHg 95%
    05:00 +25°C° 1.8 mm 2 mps 757 mmHg 95%
    06:00 +25°C° 1.8 mm 2 mps 757 mmHg 95%
    07:00 +25°C° 1.5 mm 2 mps 757 mmHg 94%
    08:00 +25°C° 1.5 mm 2 mps 758 mmHg 93%
    09:00 +26°C° 1.5 mm 2 mps 758 mmHg 92%
    10:00 +27°C° 0.7 mm 2 mps 758 mmHg 88%
    11:00 +28°C° 0.7 mm 2 mps 758 mmHg 85%
    12:00 +28°C° 0.7 mm 2 mps 758 mmHg 81%
    13:00 +29°C° 0.4 mm 2 mps 757 mmHg 79%
    14:00 +30°C° 0.4 mm 2 mps 756 mmHg 78%
    15:00 +30°C° 0.4 mm 2 mps 756 mmHg 77%
    16:00 +30°C° 0.1 mm 2 mps 756 mmHg 79%
    17:00 +29°C° 0.1 mm 2 mps 756 mmHg 82%
    18:00 +28°C° 0.1 mm 3 mps 756 mmHg 84%
    19:00 +28°C° 0.1 mm 3 mps 757 mmHg 86%
    20:00 +27°C° 0.1 mm 3 mps 757 mmHg 87%
    21:00 +27°C° 0.1 mm 3 mps 758 mmHg 89%
    22:00 +27°C° 0 mm 3 mps 758 mmHg 89%
    23:00 +26°C° 0 mm 2 mps 757 mmHg 90%

    28 February, Wednesday

    Time Temperature Precipitation Wind Pressure Humidity
    00:00 +26°C° 0 mm 2 mps 757 mmHg 90%
    01:00 +26°C° 0.1 mm 2 mps 757 mmHg 91%
    02:00 +26°C° 0.1 mm 2 mps 756 mmHg 91%
    03:00 +26°C° 0.1 mm 2 mps 756 mmHg 91%
    04:00 +26°C° 0.1 mm 2 mps 756 mmHg 91%
    05:00 +26°C° 0.1 mm 2 mps 757 mmHg 91%
    06:00 +26°C° 0.1 mm 1 mps 757 mmHg 91%
    07:00 +27°C° 0 mm 1 mps 757 mmHg 86%
    08:00 +28°C° 0 mm 1 mps 758 mmHg 81%
    09:00 +30°C° 0 mm 1 mps 758 mmHg 76%
    10:00 +31°C° 0.2 mm 1 mps 758 mmHg 71%
    11:00 +33°C° 0.2 mm 1 mps 757 mmHg 67%
    12:00 +36°C° 0.2 mm 2 mps 757 mmHg 63%
    13:00 +34°C° 1 mm 2 mps 756 mmHg 69%
    14:00 +33°C° 1 mm 3 mps 756 mmHg 76%
    15:00 +31°C° 1 mm 3 mps 755 mmHg 83%
    16:00 +30°C° 0.8 mm 3 mps 756 mmHg 84%
    17:00 +29°C° 0.8 mm 3 mps 756 mmHg 86%
    18:00 +28°C° 0.8 mm 3 mps 756 mmHg 87%
    19:00 +28°C° 0.8 mm 2 mps 757 mmHg 88%
    20:00 +28°C° 0.8 mm 2 mps 757 mmHg 88%
    21:00 +27°C° 0.8 mm 2 mps 758 mmHg 88%
    22:00 +27°C° 0.2 mm 2 mps 758 mmHg 89%
    23:00 +27°C° 0.2 mm 1 mps 758 mmHg 90%

    1 March, Thursday

    Time Temperature Precipitation Wind Pressure Humidity
    00:00 +27°C° 0.2 mm 1 mps 758 mmHg 90%
    01:00 +27°C° 0.1 mm 1 mps 757 mmHg 91%
    02:00 +26°C° 0.1 mm 1 mps 757 mmHg 91%
    03:00 +26°C° 0.1 mm 1 mps 757 mmHg 92%
    04:00 +26°C° 0.2 mm 1 mps 757 mmHg 92%
    05:00 +26°C° 0.2 mm 1 mps 757 mmHg 92%
    06:00 +26°C° 0.2 mm 1 mps 758 mmHg 92%
    07:00 +27°C° 0.2 mm 1 mps 758 mmHg 87%
    08:00 +29°C° 0.2 mm 1 mps 758 mmHg 82%
    09:00 +30°C° 0.2 mm 1 mps 759 mmHg 77%
    10:00 +31°C° 0.3 mm 2 mps 759 mmHg 74%
    11:00 +32°C° 0.3 mm 2 mps 758 mmHg 70%
    12:00 +34°C° 0.3 mm 2 mps 758 mmHg 67%
    13:00 +33°C° 0.5 mm 3 mps 758 mmHg 69%
    14:00 +33°C° 0.5 mm 3 mps 757 mmHg 70%
    15:00 +33°C° 0.5 mm 3 mps 757 mmHg 72%
    16:00 +31°C° 1.5 mm 3 mps 757 mmHg 78%
    17:00 +30°C° 1.5 mm 3 mps 757 mmHg 83%
    18:00 +28°C° 1.5 mm 3 mps 757 mmHg 88%
    19:00 +28°C° 1.7 mm 3 mps 758 mmHg 89%
    20:00 +28°C° 1.7 mm 3 mps 758 mmHg 90%
    21:00 +27°C° 1.7 mm 3 mps 759 mmHg 91%
    22:00 +27°C° 1.6 mm 3 mps 759 mmHg 91%
    23:00 +27°C° 1.6 mm 3 mps 758 mmHg 92%
    Show more